Theta_e
343 344 347 349 350 350 351 351 352 351 352 351 351 351 351 351 351 351 351 350 351 351 351 351 351 351 351 350 350 350 350 350 350 350 350 349 349 349 349 348 348 347 348 347 347 346 346 346 346 346 346 346 346 346 345 345 345 344 344 345 345 345 345 345 345 345 344 344 344 343 344 342 342 343 343 342 341 341 342 342 343 342 341 342 341
341 344 346 347 350 350 350 351 351 351 351 351 351 350 351 350 351 351 350 350 350 350 351 350 350 350 350 350 350 350 350 350 350 350 349 350 349 349 349 348 348 347 347 347 346 346 346 345 345 345 345 346 346 346 346 345 345 345 345 345 345 346 346 346 346 346 346 345 345 346 346 345 344 341 343 342 342 343 343 345 346 340 339 344 342
345 346 345 346 349 350 350 350 351 350 351 351 351 350 350 350 350 350 350 350 350 350 350 350 350 350 350 350 349 349 349 349 349 349 349 350 350 349 349 349 349 349 348 348 347 347 346 346 345 345 346 346 346 346 346 346 345 345 346 345 345 343 343 343 344 343 344 345 345 345 345 345 343 345 340 342 343 344 343 343 343 343 338 342 342
343 344 345 347 349 350 350 350 350 351 350 351 351 350 350 350 350 349 350 350 350 350 349 349 349 348 349 349 349 349 349 349 349 348 349 349 349 349 349 348 349 349 349 349 348 348 347 346 346 345 345 346 346 345 346 345 344 345 344 344 343 342 342 342 343 343 343 345 346 345 345 338 340 343 343 341 343 344 345 343 343 343 342 341 341
342 343 343 344 345 348 349 350 350 350 350 350 350 349 349 350 350 350 349 349 349 349 349 349 349 349 349 349 349 349 348 348 348 349 348 349 348 349 348 349 348 349 348 345 348 347 347 346 346 345 345 345 345 344 345 345 345 344 344 344 343 343 343 342 343 344 344 345 346 345 337 340 336 343 344 342 343 344 344 344 343 343 343 343 342
341 343 342 341 343 346 349 349 350 350 350 350 349 349 350 349 350 349 350 349 349 349 348 348 349 348 348 348 349 349 349 348 348 348 348 348 348 348 348 348 348 348 348 348 346 346 347 346 346 346 346 345 344 345 345 345 344 344 343 342 341 342 341 343 344 344 344 345 346 340 337 339 339 342 346 342 344 343 343 344 344 343 342 343 342
342 342 341 341 342 346 348 349 349 349 348 350 349 350 349 349 349 348 348 348 348 348 348 348 347 347 348 348 348 348 348 348 348 348 348 348 347 347 348 347 347 348 347 348 348 347 347 346 345 346 346 345 347 346 345 345 345 343 342 342 342 344 344 344 343 344 345 344 336 334 335 341 339 341 345 345 344 344 343 343 343 343 343 343 343
341 342 341 342 343 346 348 348 348 349 349 349 349 349 348 348 348 349 348 348 348 348 348 347 347 347 347 347 348 347 348 347 347 347 347 347 347 347 346 346 347 346 347 347 347 347 346 346 345 345 346 346 346 345 345 344 345 344 343 342 345 345 345 344 342 344 344 339 335 334 333 340 340 342 345 344 344 344 343 343 343 343 343 343 343
341 341 342 341 343 348 348 347 348 348 349 349 349 349 349 348 348 348 348 347 347 347 347 347 347 347 346 346 347 347 347 347 347 347 346 346 346 346 346 346 346 346 345 346 345 346 345 345 345 345 345 345 345 345 345 345 344 344 344 345 345 346 345 343 342 343 341 338 336 335 336 338 339 337 344 345 343 343 343 342 345 344 343 343 343
341 341 341 341 342 347 347 347 347 348 348 349 348 348 348 348 348 347 347 347 347 347 346 346 346 346 346 346 346 346 346 346 346 346 346 346 346 346 346 346 346 346 345 345 345 345 345 344 342 344 344 344 344 344 345 344 345 345 345 346 345 345 345 343 342 342 337 338 338 338 336 343 342 337 341 347 342 343 343 344 346 343 342 343 343
340 340 341 341 343 347 347 347 347 347 348 347 347 347 347 347 347 347 347 347 347 347 347 346 346 346 346 346 345 346 346 346 345 345 346 346 346 346 345 345 346 346 346 345 345 345 344 344 343 342 343 344 344 344 344 344 345 345 345 345 345 345 345 342 342 333 337 337 336 335 343 344 338 336 343 344 342 342 342 342 343 343 342 343 343
339 339 340 343 345 347 347 346 346 346 347 346 346 346 346 346 347 347 347 346 346 346 346 346 346 346 346 346 345 345 345 345 345 345 345 345 345 345 345 345 345 345 346 346 345 345 345 345 344 342 340 342 344 344 344 344 344 345 345 345 344 345 341 341 337 334 335 337 338 337 341 342 340 342 343 344 342 340 343 342 341 343 343 343 343
338 340 340 340 342 347 346 346 346 346 346 346 346 347 347 347 347 347 346 346 346 346 346 346 345 346 346 345 345 345 345 345 345 345 345 345 345 345 346 346 346 346 346 346 345 346 345 345 345 343 342 342 341 343 343 344 344 344 345 344 345 345 340 340 334 334 336 336 337 336 338 339 343 347 345 343 342 341 343 342 342 342 343 342 343
338 339 338 340 342 347 346 346 345 345 345 345 346 347 347 347 347 347 346 346 346 346 346 345 345 345 345 345 345 344 345 345 346 346 346 346 346 346 346 346 346 346 346 347 345 346 346 346 346 345 344 343 343 343 343 343 344 344 344 344 344 345 343 340 339 334 337 337 339 339 339 341 339 345 344 343 343 343 342 341 342 342 342 343 343
338 338 339 340 340 342 347 346 346 346 346 346 347 347 347 347 346 346 346 346 346 346 346 346 346 346 345 344 344 345 345 346 346 346 346 345 346 345 345 345 345 345 345 345 346 346 346 347 346 346 346 344 344 345 345 345 344 344 344 344 344 344 344 337 340 334 335 339 336 342 339 336 345 344 344 343 344 343 342 343 342 342 342 342 343
338 338 340 339 340 341 343 346 347 347 347 347 347 347 347 346 346 346 346 345 345 345 346 346 346 345 344 344 344 345 346 346 346 346 345 344 344 344 344 344 343 343 343 344 344 344 344 345 346 346 347 346 346 346 346 346 346 346 346 345 345 344 344 343 334 335 331 331 334 340 340 339 346 343 342 342 342 342 342 342 341 342 341 341 341
337 339 337 336 337 339 340 342 345 347 347 347 347 347 347 346 347 346 344 345 345 345 345 344 344 344 345 345 345 346 346 346 345 345 344 343 343 343 343 343 343 343 343 343 343 344 344 344 344 344 345 346 347 347 347 347 348 347 347 346 345 344 343 343 336 334 333 338 342 339 334 338 343 344 343 342 341 341 342 341 341 340 340 341 341
336 337 336 336 337 339 341 340 341 341 341 344 346 347 345 345 344 345 346 345 345 345 345 345 344 343 343 344 345 345 346 346 345 344 344 343 342 342 343 343 343 344 345 345 345 345 345 346 346 345 345 345 346 347 348 348 348 347 348 347 347 346 344 343 333 334 334 343 336 340 337 344 343 343 343 343 342 342 342 341 340 339 339 340 342
335 336 336 336 336 338 339 338 339 338 338 338 338 343 344 346 344 346 346 345 344 345 345 344 344 344 344 345 345 345 345 345 344 343 344 344 343 343 344 344 344 345 338 336 336 336 336 340 345 347 347 346 346 346 347 347 348 350 349 348 347 346 346 343 335 332 335 333 337 335 336 344 344 342 343 342 342 341 341 339 341 341 340 339 340
333 335 335 336 337 337 337 338 337 336 336 337 337 337 344 346 346 346 345 345 344 345 344 343 343 344 345 344 343 345 346 343 344 343 345 343 345 342 337 337 335 333 336 336 337 338 337 338 337 341 344 346 347 348 348 348 348 348 349 350 348 347 337 331 332 332 330 335 338 332 344 344 344 343 343 344 344 344 341 341 340 340 340 337 337
332 332 334 335 336 337 337 337 337 336 337 337 336 337 343 345 346 345 344 344 343 343 343 343 342 345 344 343 344 338 337 337 337 339 338 338 337 332 334 335 334 335 336 337 337 338 337 337 336 333 333 332 332 338 346 348 349 348 348 351 349 338 332 331 330 335 334 333 337 330 345 345 345 344 343 343 344 343 343 342 341 340 340 339 336
329 331 333 335 335 336 337 336 334 335 336 337 340 340 343 342 337 337 340 343 341 343 342 339 343 335 343 338 338 342 338 335 338 337 330 333 331 334 333 334 335 335 335 335 335 336 335 335 335 332 332 330 328 322 335 342 343 343 345 347 343 333 332 330 330 332 333 328 335 340 345 345 345 344 344 343 343 342 343 342 342 341 338 339 339
327 330 330 333 334 335 335 335 334 334 334 335 339 339 338 336 336 337 341 341 335 331 327 329 326 327 328 328 333 331 333 333 331 332 331 332 330 333 334 334 334 335 334 332 332 333 332 333 332 331 330 327 315 315 320 328 329 336 334 335 335 334 331 329 329 329 330 335 333 343 343 344 344 344 344 344 344 343 343 342 341 342 340 339 338
328 329 331 333 335 333 336 335 337 335 334 333 338 337 335 335 335 335 335 330 325 325 323 324 323 324 325 325 324 326 324 324 332 332 330 321 322 328 331 330 330 331 332 325 327 329 328 328 328 328 324 319 313 313 315 317 320 317 315 323 334 333 330 328 330 328 328 340 336 345 345 345 345 345 345 343 342 341 342 340 340 340 341 339 340
329 332 332 331 332 335 336 335 336 336 336 332 332 328 323 322 323 326 328 324 322 321 321 322 323 323 324 324 322 323 322 320 320 320 319 319 318 318 318 317 318 318 329 317 317 318 319 317 317 320 315 316 314 314 315 315 316 315 316 317 327 331 330 330 331 330 333 333 339 345 345 345 344 344 345 343 342 342 341 341 340 339 339 340 340
331 329 330 332 334 336 334 333 334 334 332 323 325 328 323 322 323 324 323 323 322 321 320 321 321 322 323 325 323 320 320 319 319 319 319 318 318 317 317 317 317 318 322 317 317 317 316 316 316 316 315 315 314 315 316 318 315 315 315 316 317 326 327 329 331 332 334 333 337 345 344 344 344 344 344 343 343 342 340 341 339 340 338 340 340
329 331 331 332 334 333 333 333 330 327 324 322 320 320 320 321 324 325 322 321 321 320 319 320 321 322 322 326 322 319 319 318 318 318 317 318 317 317 316 317 316 317 319 317 317 317 316 316 316 315 315 316 315 317 316 315 314 316 316 315 315 315 321 330 331 332 333 334 341 342 343 343 343 343 342 342 343 342 340 340 341 341 339 341 341
329 331 332 331 332 330 332 329 322 321 321 321 319 319 319 321 324 325 324 327 320 319 319 320 321 321 323 323 325 320 318 317 317 317 316 316 317 317 317 316 316 317 318 318 317 316 316 316 316 315 315 315 315 318 316 316 315 316 316 315 315 314 318 329 332 331 333 332 335 340 342 343 343 342 342 341 340 340 338 336 335 337 337 339 340
329 330 330 331 331 335 330 325 322 321 320 320 319 318 319 320 321 321 323 327 318 318 318 319 319 321 321 321 323 319 318 317 316 317 316 316 315 316 315 315 316 316 317 316 317 316 316 316 316 314 315 313 313 317 315 316 315 316 316 314 315 315 316 324 329 330 331 329 329 336 341 341 341 341 340 340 338 336 334 332 332 332 334 335 336
328 329 329 329 328 326 325 323 322 321 321 319 318 318 318 318 318 320 321 324 318 320 319 318 318 318 318 320 322 321 318 315 316 316 316 316 316 316 315 315 315 316 316 315 317 316 315 316 316 315 316 313 312 315 314 313 315 316 317 314 314 315 314 316 324 326 328 327 327 333 340 340 340 339 338 336 334 333 331 330 329 330 332 332 333
329 328 328 326 325 322 321 322 322 325 320 319 318 317 318 318 319 317 318 318 319 319 318 318 317 318 319 319 320 322 318 316 315 315 315 315 316 317 317 316 315 316 317 316 317 316 315 315 316 314 314 313 312 313 314 312 313 315 317 314 313 315 315 315 319 327 327 328 327 328 333 339 339 338 337 335 333 330 329 328 327 328 331 330 330
326 325 324 323 322 321 321 322 321 323 321 319 321 318 317 318 318 317 317 318 320 317 317 318 320 318 319 318 319 319 321 316 316 316 315 314 314 315 316 317 317 317 317 316 316 315 315 315 316 315 314 313 312 312 313 311 312 313 316 315 314 315 315 313 313 322 326 326 325 327 327 330 337 337 337 335 333 331 329 327 327 328 327 327 327
324 324 324 323 321 320 320 319 319 319 318 317 316 315 316 317 318 317 319 320 318 318 316 316 317 318 319 318 319 320 321 317 316 317 320 314 314 315 316 318 317 318 317 316 315 314 314 314 314 315 314 311 311 311 313 311 311 312 313 315 314 314 314 314 312 313 319 324 323 324 323 328 328 336 336 335 334 332 329 328 327 327 327 327 327
325 324 325 325 327 325 323 321 319 318 319 317 316 315 316 318 318 316 318 316 316 316 318 316 318 317 318 318 318 320 318 318 317 316 316 316 316 316 316 317 317 317 317 316 313 313 312 312 313 312 315 310 308 310 310 310 310 311 311 313 312 313 313 314 314 312 312 317 318 322 323 324 325 326 328 334 333 333 331 329 327 327 327 326 324
325 324 324 322 323 323 324 322 322 318 318 316 316 317 315 315 315 315 315 314 315 314 315 316 315 316 316 317 318 319 317 317 317 316 316 315 315 315 316 316 317 317 315 315 312 311 312 311 313 311 309 308 306 309 309 309 309 309 310 312 312 311 311 311 312 310 311 312 313 312 315 319 321 323 326 323 335 333 334 331 329 328 326 326 324
323 323 325 323 322 322 322 320 319 318 317 317 314 315 315 316 318 321 315 314 314 314 314 315 315 314 316 316 317 320 318 318 316 315 315 315 314 315 315 316 316 315 314 313 312 310 311 311 311 310 308 307 305 304 307 309 310 308 310 311 311 312 307 308 308 307 308 308 308 306 304 307 316 317 321 316 317 319 326 330 332 330 326 326 325
323 323 321 321 321 322 322 319 318 318 317 316 315 314 314 314 314 314 314 314 313 313 314 315 315 315 314 315 316 319 317 318 318 317 317 316 315 316 315 316 316 314 312 310 309 310 309 311 309 312 309 306 304 302 303 308 309 308 308 310 310 308 305 305 307 305 306 306 305 303 303 304 309 313 306 308 310 311 315 319 321 326 324 320 317
325 322 321 320 319 319 318 318 318 319 316 315 314 314 314 314 314 316 319 313 314 314 314 314 314 314 315 316 317 318 318 317 318 318 317 319 316 316 316 316 314 313 311 309 308 309 308 309 309 309 309 306 303 301 300 304 309 308 307 309 309 305 304 304 305 310 303 304 304 302 301 302 303 303 303 303 304 307 308 311 315 315 315 318 319
322 321 320 319 319 322 324 324 320 319 318 318 318 314 312 312 312 312 312 313 313 313 314 313 313 314 314 317 319 318 319 316 317 318 318 316 317 316 316 315 314 312 310 308 307 308 308 308 309 308 309 306 302 301 300 303 305 307 307 307 308 303 303 305 303 302 302 302 306 305 302 301 301 302 302 302 302 303 306 306 304 302 303 317 319
321 320 321 321 320 317 316 318 319 318 317 316 315 313 312 312 310 311 311 313 313 318 313 313 313 315 319 316 316 316 318 318 316 316 317 317 316 316 316 316 313 311 310 308 307 306 305 305 307 308 306 304 303 302 301 301 301 302 307 306 307 303 303 303 301 301 302 301 301 302 301 302 301 301 301 301 301 302 302 305 310 302 303 308 320
320 320 319 319 318 317 317 314 315 315 314 313 313 311 311 310 310 310 309 310 313 315 314 314 315 316 316 317 317 317 317 319 318 316 314 318 317 316 315 314 313 312 310 308 307 306 306 305 305 306 306 302 301 302 301 301 298 298 300 302 304 305 305 302 301 301 301 301 301 301 301 301 301 300 300 301 301 302 302 302 302 301 301 301 305
318 319 318 318 316 316 315 314 314 314 314 314 314 312 310 310 309 310 310 311 312 311 312 312 315 318 316 316 317 316 316 317 320 317 316 314 315 315 315 313 312 311 311 311 308 310 304 303 303 301 303 302 299 301 301 299 296 295 296 298 300 301 303 299 300 300 300 301 301 301 301 301 301 300 301 301 301 301 302 301 301 301 301 302 303
317 316 316 316 315 314 314 315 314 314 314 316 313 312 312 312 310 309 309 310 310 313 312 316 315 314 314 315 316 314 314 315 316 320 316 315 314 315 315 313 312 313 307 306 304 303 303 302 302 300 299 300 301 302 301 300 296 297 298 297 294 294 298 297 298 299 300 300 300 301 302 301 300 300 300 300 300 300 301 301 301 301 301 302 304
316 315 315 316 317 316 312 313 313 314 314 317 316 312 313 312 311 310 312 310 311 318 313 314 313 313 314 315 316 315 315 315 316 318 316 314 313 313 313 311 311 311 307 304 303 301 302 302 301 302 300 296 297 298 303 301 300 297 292 294 294 292 288 291 294 296 298 299 300 299 301 300 300 299 299 299 299 300 300 301 300 300 300 300 301
314 313 314 316 316 313 313 313 312 312 314 321 315 315 315 312 312 313 314 312 312 310 309 309 314 317 315 314 314 316 316 316 316 318 318 313 312 312 310 308 307 308 308 304 302 301 301 301 301 301 299 297 296 296 299 302 300 302 297 294 291 289 288 291 293 291 296 297 298 299 301 299 299 299 298 298 299 299 300 300 299 299 299 299 299
312 312 315 315 314 313 314 313 313 313 315 315 316 316 315 311 309 309 308 308 308 307 307 308 310 311 312 315 315 316 317 317 316 316 316 314 311 310 309 307 305 306 307 305 303 301 301 301 302 300 300 299 297 297 296 301 302 302 300 298 294 289 290 292 291 288 295 296 297 298 298 298 298 297 297 298 298 298 301 299 298 298 298 298 298
312 313 314 314 314 314 313 313 313 313 316 316 317 317 312 310 310 309 308 307 307 308 309 309 311 313 313 313 314 315 316 316 316 315 313 313 310 310 309 307 305 304 307 303 302 300 301 302 303 301 300 302 298 296 296 296 297 299 300 299 300 298 295 293 289 290 288 291 294 295 296 297 297 296 297 297 297 297 298 299 297 297 297 297 297
311 312 313 314 314 315 314 314 316 319 317 318 316 316 312 310 310 310 311 308 308 309 310 312 313 315 313 313 314 315 317 316 315 314 314 313 310 309 308 306 304 305 305 302 301 300 300 302 303 301 302 301 299 297 296 297 295 295 300 297 297 297 295 295 295 292 290 288 290 294 295 296 296 295 296 296 296 297 296 297 297 296 296 297 296
311 312 314 314 315 315 315 315 315 316 313 316 315 314 315 311 311 311 310 309 308 310 314 317 314 314 313 313 314 315 315 315 314 313 313 312 313 308 307 305 303 303 306 302 301 300 299 298 298 299 299 299 302 301 297 296 296 294 294 294 294 292 293 294 295 294 292 288 287 290 291 294 293 294 295 296 296 297 296 296 298 297 299 296 295
312 315 314 314 314 313 316 316 314 312 312 313 314 312 313 315 310 309 308 309 313 312 310 310 311 311 313 313 313 314 314 313 313 313 312 311 309 308 306 305 304 305 305 301 300 300 299 298 299 299 299 298 298 300 299 296 297 296 295 294 292 292 292 292 292 292 292 291 288 289 290 290 288 291 294 294 295 295 295 296 295 294 294 294 294
313 313 313 313 313 314 315 314 313 312 314 313 313 313 312 311 311 309 309 309 310 309 308 310 312 310 311 311 312 314 314 312 312 312 310 310 310 311 306 304 304 307 303 300 299 299 300 299 298 298 298 298 297 296 298 298 297 296 294 294 292 292 292 292 291 291 291 289 288 288 289 290 290 288 291 294 296 294 294 294 293 293 293 294 294
Wind_Speed
3 2 1 5 8 9 10 11 12 12 12 12 12 12 11 11 11 11 11 11 10 10 10 10 10 10 11 10 10 10 9 9 9 9 9 9 9 9 9 9 9 9 8 9 8 9 10 10 10 10 11 10 10 10 9 9 8 7 7 7 7 7 6 7 5 5 3 3 3 3 2 1 2 3 3 2 2 1 1 3 4 3 4 3 4
1 1 2 2 8 8 10 11 11 11 11 11 11 11 11 11 11 11 11 11 11 10 10 10 10 10 10 10 9 9 9 8 8 8 8 8 8 8 9 8 9 9 8 8 8 9 9 9 9 9 9 10 10 9 8 8 8 8 8 8 9 9 6 5 6 7 5 2 1 0 0 0 1 3 4 4 3 4 5 7 9 4 2 5 4
2 3 2 3 8 9 9 10 11 11 11 11 11 11 10 10 11 11 11 11 11 10 10 9 10 10 10 10 10 9 9 9 9 8 8 9 8 8 9 8 8 7 8 8 8 8 8 8 8 8 10 8 9 8 8 8 7 8 7 10 9 4 3 6 5 3 3 2 2 3 2 1 2 2 3 4 4 5 6 8 9 7 3 6 4
3 2 3 3 8 8 9 10 10 10 10 10 10 10 10 10 10 11 11 11 11 10 10 10 9 10 10 10 10 9 9 9 9 9 9 9 9 8 9 8 9 8 8 7 8 7 7 7 7 7 7 8 7 7 7 6 6 7 10 9 5 2 2 2 2 2 4 4 3 3 1 0 0 2 1 5 5 5 6 7 7 7 6 6 5
3 2 2 3 4 6 8 9 10 10 10 10 10 10 10 10 10 11 11 11 11 11 10 10 10 10 10 11 11 10 10 10 10 10 10 9 9 9 9 9 9 9 8 8 8 7 7 6 6 6 6 8 7 7 7 6 6 8 8 6 3 1 3 1 4 4 4 6 6 3 1 0 0 2 1 6 6 5 6 7 7 6 6 6 6
2 2 3 3 3 3 8 9 10 10 10 10 10 10 11 11 11 11 11 11 12 11 11 10 10 10 10 11 11 11 10 10 10 11 10 10 10 10 10 10 10 10 9 9 7 8 8 7 7 7 7 7 5 7 7 6 6 9 7 2 0 0 0 3 5 5 6 7 6 0 1 0 0 0 1 4 6 6 5 6 6 6 6 6 5
2 2 2 2 2 4 8 9 9 10 10 10 10 10 11 11 11 11 11 12 11 11 11 10 10 10 10 11 11 11 11 11 11 11 11 11 11 11 11 11 10 10 9 8 8 8 8 7 7 7 7 7 8 8 7 6 6 7 3 2 1 1 1 2 4 5 5 2 2 1 1 0 0 0 2 2 7 7 6 6 6 5 5 5 5
2 2 2 1 1 4 8 9 9 9 9 10 10 10 10 11 10 11 11 11 11 11 10 10 10 10 10 11 11 11 11 11 11 11 11 11 11 11 11 11 10 10 10 9 9 8 8 7 7 7 7 7 7 7 6 6 5 5 2 1 3 4 3 3 3 5 3 0 2 2 2 1 1 0 3 2 6 6 6 6 5 5 5 5 5
2 2 2 2 2 7 8 8 9 9 9 10 10 10 10 10 10 10 11 11 11 11 11 11 10 10 10 10 11 11 11 10 10 10 10 10 11 11 11 10 10 10 10 9 8 8 8 7 7 7 7 7 7 6 5 5 4 3 3 5 6 5 4 3 2 1 1 1 1 2 2 2 1 2 2 2 5 6 6 5 4 4 4 4 4
2 2 2 1 1 7 8 8 8 9 9 10 10 10 10 10 10 10 10 10 10 11 11 10 10 10 10 10 10 10 10 10 10 10 10 10 10 11 10 11 10 10 9 9 8 8 8 7 7 7 7 6 6 5 4 4 3 4 5 6 7 6 7 3 1 1 1 1 0 0 1 1 0 1 2 2 4 6 5 6 3 4 3 6 5
2 2 1 2 3 7 7 7 8 9 9 9 10 10 10 10 10 10 10 10 10 10 10 10 10 10 10 10 10 10 10 10 10 10 10 10 10 10 10 10 10 9 9 9 8 8 7 7 7 6 6 6 4 4 4 5 5 5 6 6 7 7 7 4 2 1 2 1 1 1 3 2 1 1 3 1 0 3 3 4 6 5 4 4 5
2 1 1 1 5 7 7 8 8 8 8 8 9 9 9 10 9 9 9 9 10 9 10 10 10 10 10 10 10 10 10 10 10 10 11 10 10 10 10 9 9 9 8 8 7 7 8 7 6 6 5 5 4 4 4 5 5 5 6 6 6 7 6 5 2 3 3 2 2 0 1 2 0 2 4 2 6 5 5 5 5 5 4 5 5
3 3 3 3 3 7 8 7 8 7 8 8 8 8 9 9 9 9 9 9 9 9 9 10 10 10 10 10 10 10 10 10 11 11 11 11 10 10 10 9 9 8 8 8 7 7 7 7 7 6 5 5 5 5 6 6 6 6 5 6 6 6 4 4 2 3 2 2 2 2 1 1 1 3 4 4 4 4 5 5 5 5 5 5 5
3 2 2 1 1 7 8 8 7 8 7 8 8 8 8 9 9 9 9 9 9 8 9 9 10 10 10 10 10 10 10 10 10 10 10 10 9 9 9 9 8 8 8 9 9 9 8 7 7 6 6 5 6 6 6 6 6 6 5 5 5 4 4 4 2 2 1 1 1 0 0 1 2 3 2 6 5 4 3 3 6 6 6 6 6
3 3 3 3 3 2 8 8 7 7 8 8 8 8 9 9 9 9 8 8 8 8 9 10 10 10 11 11 11 10 9 9 9 9 9 8 8 8 8 8 8 9 9 9 9 9 9 8 8 7 7 6 6 7 7 7 7 7 5 4 4 4 2 1 2 1 1 1 1 1 1 2 4 2 3 5 6 5 5 6 5 6 5 6 6
4 3 3 3 3 3 3 7 8 7 7 7 7 8 8 8 8 8 8 9 9 9 10 10 10 10 11 10 11 10 9 9 9 9 8 8 7 7 7 8 8 8 9 9 9 9 9 9 9 8 8 8 7 8 7 6 7 7 6 4 4 3 1 1 1 1 1 1 2 1 1 2 5 2 1 3 3 5 4 5 5 2 3 4 5
4 3 4 4 4 3 3 3 5 9 7 7 7 8 8 8 8 10 10 10 10 11 11 11 10 11 10 10 9 10 10 9 9 8 8 7 7 7 7 8 8 8 8 9 9 9 9 9 8 9 9 10 10 9 8 7 8 8 7 5 4 3 1 1 1 0 1 2 1 1 2 2 2 1 2 4 3 2 1 4 3 2 3 3 3
3 3 3 3 3 3 4 4 5 4 3 6 7 9 9 9 11 11 9 8 9 11 10 10 10 9 9 9 9 9 8 8 7 8 8 8 7 8 8 9 10 10 11 12 10 10 10 10 9 8 8 9 10 10 10 9 8 8 7 6 5 4 2 0 1 1 2 2 4 2 2 2 3 3 3 0 3 3 5 3 3 1 4 6 2
3 3 3 3 4 3 4 4 3 2 3 3 4 4 9 9 10 9 7 8 8 8 9 10 9 9 8 8 8 6 7 7 8 7 9 8 8 7 8 8 10 12 14 14 14 14 14 13 12 9 8 9 10 10 10 9 9 8 8 6 6 4 2 2 0 2 2 2 2 3 2 6 6 5 4 3 2 2 1 5 3 3 2 2 4
2 3 3 3 3 3 2 3 2 1 1 2 2 2 4 7 8 8 6 6 8 7 7 8 8 7 6 7 7 5 6 5 8 6 9 10 9 9 11 11 13 14 12 13 14 15 15 15 15 13 11 10 10 11 11 9 9 8 8 7 5 4 1 1 0 2 2 2 2 2 4 6 5 5 5 5 4 3 3 2 3 4 1 1 1
2 3 3 3 2 2 2 2 2 1 1 1 1 1 1 5 4 6 7 7 9 9 9 7 7 6 6 6 5 3 3 3 5 5 11 7 14 13 15 14 14 14 14 15 15 15 15 14 14 14 14 14 14 11 11 10 10 11 9 7 5 0 3 1 0 1 3 3 4 3 5 6 6 6 6 5 5 4 5 3 2 2 2 3 2
3 3 3 3 2 2 1 0 1 1 1 2 2 2 3 4 3 4 4 5 8 9 7 6 7 5 9 6 5 3 4 4 4 9 7 9 10 15 14 15 15 16 16 16 16 15 14 13 13 13 13 13 12 7 7 7 9 10 10 10 3 2 5 2 2 3 2 1 2 1 7 7 7 7 7 6 5 5 4 3 4 3 4 3 3
3 2 1 2 2 2 1 0 0 0 2 2 2 2 3 2 2 4 4 7 8 9 7 7 6 7 7 7 6 6 6 6 5 9 8 12 10 14 14 14 15 16 16 15 15 15 14 13 14 13 12 11 7 6 6 6 5 9 7 5 2 3 5 2 3 3 3 1 1 5 6 8 8 8 7 6 6 6 5 4 4 6 3 4 5
1 1 1 2 1 2 3 1 1 2 3 3 2 3 3 3 4 5 5 5 6 6 6 7 7 7 7 6 6 6 5 4 9 13 10 6 7 11 14 13 13 14 16 9 11 13 13 12 13 13 8 5 5 5 5 5 5 6 7 6 1 1 4 1 3 2 2 2 1 7 10 10 11 10 10 8 8 7 5 5 4 4 5 2 3
1 1 1 1 2 2 1 1 2 3 3 3 4 6 6 7 6 5 5 5 5 6 6 7 7 7 7 6 5 5 5 5 6 6 6 6 6 7 7 7 6 7 10 7 7 8 8 8 7 8 6 6 6 6 6 6 5 7 8 7 4 1 5 2 3 2 4 2 2 8 11 11 11 12 12 11 10 9 8 7 7 5 4 4 3
1 2 1 1 2 1 1 2 2 3 4 5 4 4 6 7 6 5 6 5 6 6 6 6 6 6 6 6 6 6 6 6 6 7 6 6 7 6 6 6 6 6 6 6 6 7 7 7 6 7 6 6 6 6 5 5 6 7 7 6 5 1 5 3 3 1 4 3 2 7 10 11 12 12 12 12 11 11 11 9 8 9 8 7 7
0 1 1 1 1 2 2 2 4 5 3 3 4 6 7 6 6 6 6 6 6 6 6 6 6 6 6 5 6 6 6 6 6 6 7 6 6 6 5 5 6 6 6 6 7 6 6 7 6 6 6 7 7 6 6 6 5 6 5 4 4 4 3 3 3 1 2 2 1 5 8 10 11 11 11 11 11 12 11 11 11 10 8 11 12
1 1 0 0 1 1 2 5 6 5 4 6 7 6 6 7 6 6 6 5 5 6 6 6 5 6 5 5 4 5 5 6 6 6 5 5 5 5 5 6 6 6 6 6 7 7 7 6 6 7 7 6 7 7 6 6 6 5 5 5 4 6 4 4 5 1 2 1 0 3 5 9 11 10 9 10 11 11 11 11 11 10 10 9 8
2 2 1 1 1 3 5 5 5 5 5 6 6 5 6 7 6 6 5 4 5 5 4 5 5 4 4 5 4 6 6 6 5 4 4 5 4 5 5 5 5 6 6 7 6 6 7 6 6 6 6 6 6 7 6 6 6 5 6 6 7 7 5 4 5 2 1 1 1 2 6 8 9 9 9 9 9 9 9 9 9 9 9 10 9
3 2 2 3 4 6 7 7 7 7 6 7 5 6 5 7 7 6 5 5 5 5 4 5 3 4 5 4 4 4 5 6 5 4 4 4 4 4 5 5 6 6 6 7 6 6 6 7 7 7 6 6 6 7 7 7 7 6 6 6 6 6 5 3 3 2 2 0 1 1 7 8 8 8 8 8 8 7 6 6 7 7 7 8 9
2 3 4 5 5 7 7 7 6 5 6 6 5 5 5 6 6 6 5 5 4 5 5 4 4 4 4 4 4 4 5 5 5 4 5 5 5 5 5 5 6 6 6 6 6 6 6 6 6 6 6 6 6 6 7 7 8 8 7 6 5 5 5 3 4 3 2 0 2 2 2 8 8 7 8 7 6 6 5 4 7 7 7 7 7
3 3 4 5 7 7 7 6 6 6 6 5 5 6 6 6 6 6 5 4 4 5 5 4 4 4 4 4 4 4 4 4 4 4 5 5 6 6 6 6 6 6 6 6 6 6 6 6 7 6 5 5 6 7 6 7 8 7 6 7 6 5 4 4 3 3 2 1 2 3 1 2 7 7 7 8 6 4 4 3 5 5 5 5 5
3 5 6 7 6 5 7 5 5 5 6 5 5 4 5 6 6 5 4 4 5 5 5 4 4 4 4 4 4 4 3 4 4 4 4 5 5 6 6 6 5 6 6 6 7 6 7 7 8 7 8 7 8 7 7 7 7 7 7 7 7 6 5 3 3 1 2 2 2 4 3 1 2 5 6 6 6 6 5 3 2 5 3 4 6
5 5 6 5 3 3 4 4 5 6 5 4 4 6 5 6 6 5 4 5 4 5 3 4 4 4 4 4 4 4 4 3 4 4 5 6 6 6 6 6 6 5 6 7 7 6 6 7 6 6 8 8 7 7 7 8 7 7 8 7 7 6 6 8 5 3 2 0 1 4 4 2 1 1 2 5 6 7 4 3 2 1 5 5 4
5 4 6 5 4 3 3 4 4 5 5 4 5 5 4 6 6 5 5 4 3 4 4 3 4 5 6 6 4 4 4 4 4 5 5 6 6 6 6 6 6 6 6 6 6 6 6 6 6 7 6 8 7 7 7 6 6 8 7 6 7 8 9 9 9 9 9 8 9 8 5 5 7 7 6 7 7 11 13 7 3 3 4 3 6
6 6 5 5 5 3 4 5 4 5 4 5 4 6 7 6 5 5 5 4 4 5 4 3 5 4 5 4 4 4 4 4 4 4 5 5 6 6 6 6 5 6 6 6 6 7 6 6 6 6 7 8 8 8 6 7 6 7 6 6 7 8 8 8 9 9 9 11 9 7 9 11 9 7 8 7 6 10 20 18 10 8 4 7 11
7 7 7 6 5 4 4 4 5 5 4 5 5 5 7 6 5 6 5 4 4 3 1 1 3 4 4 5 4 4 4 5 4 4 5 5 5 6 6 6 5 6 6 6 7 6 6 6 7 6 5 6 8 8 7 6 6 5 5 6 7 7 8 8 9 9 10 11 9 9 11 10 9 11 8 8 7 6 13 22 20 14 12 12 13
5 6 6 7 6 4 4 4 3 4 4 5 5 5 5 5 5 5 4 4 2 1 1 3 4 3 3 3 3 4 4 5 5 4 4 4 4 5 5 6 5 6 6 6 6 6 6 6 6 6 6 7 7 7 7 6 5 4 5 6 7 8 7 8 8 9 10 10 10 11 9 8 9 10 9 9 8 7 8 12 16 15 15 15 15
6 7 6 4 4 3 3 3 4 5 6 5 4 5 5 5 4 5 5 3 2 1 1 3 2 3 4 3 3 4 4 5 5 4 5 5 5 5 5 4 5 6 6 7 7 7 7 7 6 6 5 7 6 6 5 5 5 3 4 5 6 8 7 8 9 10 9 9 9 9 8 9 9 10 10 8 8 7 8 8 8 8 9 16 15
6 5 5 4 4 4 5 4 3 5 6 5 5 5 5 5 5 4 4 3 2 2 2 1 2 4 3 3 3 4 4 5 5 5 5 5 5 5 5 4 5 6 7 8 7 7 8 8 8 7 7 7 9 8 8 6 3 3 4 5 5 7 10 9 10 10 9 9 8 8 9 8 9 8 9 8 8 8 8 8 7 8 7 10 13
5 5 5 5 5 4 6 5 2 4 7 6 4 6 6 3 3 2 2 0 1 1 1 1 2 2 2 3 3 4 4 4 4 5 6 5 5 5 5 5 5 6 6 6 5 6 6 6 5 6 8 8 9 9 11 4 5 5 3 4 4 4 8 10 11 10 10 8 8 8 7 8 9 9 8 7 8 8 8 9 8 8 8 6 8
4 5 5 5 4 5 6 4 3 4 6 7 5 4 4 6 6 5 2 1 1 2 1 2 2 3 4 3 3 3 4 4 4 4 5 5 6 6 5 5 5 6 6 5 6 7 7 8 6 7 6 7 7 9 10 5 7 3 3 6 5 3 5 8 12 10 10 9 8 9 8 9 10 8 7 8 8 9 9 9 9 10 10 8 8
5 5 5 5 4 6 5 4 4 5 6 7 6 5 2 2 3 3 4 1 1 0 2 2 3 5 4 3 3 4 4 4 4 4 5 5 6 6 5 5 5 5 6 7 7 8 8 9 9 7 6 5 6 7 10 9 5 3 1 3 4 6 4 5 6 8 9 9 9 10 10 9 10 9 7 7 8 9 8 9 10 11 12 10 8
6 4 4 6 5 5 4 4 4 4 5 5 6 5 4 1 2 3 1 1 1 0 3 3 3 3 2 2 3 4 5 5 5 5 5 6 6 6 5 6 6 5 6 7 7 8 8 8 8 9 5 8 6 8 8 9 8 5 5 3 1 2 4 5 8 4 6 8 10 10 9 9 9 10 8 9 8 8 8 7 9 9 9 9 9
6 5 4 5 5 5 5 5 5 5 4 4 5 5 5 4 3 3 2 2 2 3 4 4 3 4 3 5 3 4 5 6 5 5 5 6 5 5 6 6 7 6 6 7 7 7 7 7 7 8 9 6 7 5 8 9 10 8 3 3 4 5 1 5 6 4 4 6 10 9 10 11 10 10 8 8 8 8 8 7 7 7 7 8 8
6 5 5 6 6 4 4 4 3 4 4 4 4 6 5 5 3 3 2 2 3 3 5 4 3 4 4 0 3 4 5 5 5 6 6 6 7 6 6 7 6 6 6 6 6 6 7 8 7 7 8 6 5 8 7 7 7 10 9 6 3 3 2 4 5 5 3 3 8 8 10 11 9 10 9 9 10 9 8 7 7 8 7 7 8
5 5 6 6 6 5 4 4 4 2 3 4 4 6 5 4 5 5 4 4 3 1 1 1 4 2 1 3 4 4 5 6 5 5 6 6 6 6 6 6 6 6 6 6 6 6 7 6 6 7 6 6 6 9 8 6 4 8 7 7 6 4 4 5 4 4 6 4 5 9 9 10 9 9 10 10 10 8 8 7 7 7 7 6 8
6 7 7 6 6 5 5 4 3 3 3 4 5 6 6 4 5 4 4 4 3 3 3 3 3 3 3 3 4 4 4 5 6 5 6 6 6 6 6 6 6 6 6 6 6 5 6 6 6 6 6 6 6 7 6 6 7 4 5 6 5 4 5 5 3 2 1 6 9 6 3 8 8 6 8 10 10 8 9 7 7 6 6 7 6
7 8 7 7 6 5 4 3 3 3 3 5 5 5 6 6 6 5 4 3 3 3 1 2 3 2 4 2 4 4 5 5 5 6 5 6 6 6 6 6 6 5 5 6 5 6 7 7 7 8 7 7 6 5 6 7 7 6 5 6 5 5 4 4 4 3 4 3 2 7 11 8 4 5 8 8 9 7 9 6 5 5 5 6 6
7 7 7 6 5 4 4 4 4 4 4 4 6 5 4 4 4 4 5 4 2 1 2 3 2 2 4 2 3 5 5 6 5 5 6 6 6 6 6 6 6 6 5 6 5 6 6 7 7 6 6 6 5 6 6 5 6 5 6 5 6 5 4 4 5 5 2 4 4 8 8 10 12 8 3 5 7 6 9 7 8 7 8 7 7
6 8 6 5 5 4 4 5 5 4 4 5 5 5 4 4 5 5 5 4 4 3 3 2 1 2 4 2 3 4 4 5 5 5 6 6 6 5 5 5 5 5 6 6 5 5 5 5 6 6 6 6 6 6 6 5 5 6 6 6 6 7 5 5 5 6 4 3 5 5 5 5 5 9 8 7 6 4 6 4 5 3 3 3 3
Wind_Direction
338 46 329 87 95 91 84 82 81 81 83 86 87 88 88 91 92 90 88 86 87 84 81 80 80 79 80 77 72 75 79 73 69 71 69 69 71 69 64 62 74 80 76 81 77 74 74 77 78 78 79 77 75 75 74 74 75 73 72 62 55 49 48 44 40 39 52 45 43 54 52 137 147 152 148 133 124 140 231 154 117 102 98 153 153
163 341 17 73 87 86 82 80 82 83 85 89 91 89 86 85 87 87 87 87 85 83 81 78 79 80 81 80 76 71 71 70 71 73 77 75 72 71 69 66 63 65 72 71 67 65 64 66 68 71 75 73 72 70 68 68 66 65 65 64 54 50 44 36 30 31 30 54 151 330 296 224 262 181 155 140 131 101 97 119 120 99 109 137 146
95 47 349 87 90 85 86 87 86 85 86 87 89 87 87 89 89 88 87 86 85 83 81 78 77 77 79 82 80 74 72 76 77 76 72 73 66 67 66 65 67 69 62 65 66 61 62 63 60 63 66 67 67 71 67 55 54 60 62 57 62 49 23 21 12 354 332 310 267 215 199 202 207 311 189 146 126 114 107 114 114 112 126 136 133
76 34 27 46 82 87 89 85 84 89 90 91 91 97 96 90 88 87 87 86 85 82 78 75 73 74 75 77 80 78 77 75 73 70 70 71 73 69 65 62 61 62 67 68 70 64 53 51 51 54 65 79 63 54 62 67 58 54 43 55 61 34 47 38 297 273 264 274 233 217 217 179 280 249 206 151 136 124 121 116 118 122 122 128 137
73 44 24 30 40 80 90 98 101 99 96 96 97 93 92 91 89 87 85 84 82 79 77 75 72 71 72 72 73 74 73 72 68 66 65 64 64 63 63 60 62 60 58 61 65 59 55 48 40 47 45 54 47 51 50 40 41 64 60 57 60 98 64 227 263 263 275 249 228 198 241 190 141 227 211 154 141 130 122 128 130 132 137 138 145
76 38 34 30 39 75 98 100 100 99 98 96 95 95 91 89 85 82 80 79 78 78 76 72 68 65 67 70 71 71 70 69 68 66 64 63 62 61 59 57 57 62 59 51 46 57 49 46 40 40 37 52 58 59 46 37 35 39 68 89 337 247 183 248 255 270 245 228 220 147 293 1 48 321 293 170 148 149 142 135 137 143 142 147 146
73 57 44 34 38 104 102 99 97 97 97 96 94 89 85 81 80 79 78 78 77 77 75 71 66 61 60 62 66 67 67 66 65 66 64 60 58 57 56 55 52 53 62 64 54 49 50 41 38 36 34 36 46 50 47 40 34 69 51 11 274 29 238 264 276 256 232 233 319 16 342 303 111 349 243 213 159 158 154 149 149 146 150 149 143
53 70 55 45 65 105 99 95 96 98 96 95 91 87 85 84 84 83 82 80 79 78 76 72 67 62 59 59 61 64 64 62 61 61 61 58 55 51 51 51 47 45 41 41 41 41 39 37 34 33 36 38 43 48 44 36 36 48 77 282 8 28 356 332 264 227 204 338 316 4 326 347 173 210 253 196 167 166 164 157 148 142 148 156 155
89 57 38 37 105 102 96 99 98 97 96 90 87 87 85 83 83 81 82 81 80 79 76 73 68 64 59 57 59 62 64 64 60 58 57 56 54 52 49 48 46 44 42 41 37 35 28 25 25 28 30 35 37 40 34 26 19 13 17 5 13 5 348 339 264 227 248 326 13 348 343 359 344 346 298 214 178 170 168 157 145 146 145 148 144
71 40 23 18 80 99 95 95 94 93 88 86 85 83 84 84 82 81 80 80 79 77 74 73 71 67 62 58 56 56 58 60 60 58 54 52 52 50 47 44 41 39 39 38 37 34 29 24 14 14 26 28 24 25 14 3 347 354 5 14 7 350 347 343 267 33 352 340 58 353 303 256 357 352 295 290 195 181 168 156 147 143 151 137 153
105 117 68 45 79 90 89 89 89 87 87 86 87 86 84 84 83 80 79 77 76 74 73 71 70 68 64 62 59 55 56 55 57 57 55 52 50 49 45 42 39 34 32 31 31 30 24 25 20 15 1 11 10 357 346 336 337 346 1 7 2 355 349 17 58 15 346 0 54 15 328 245 57 299 267 182 191 203 195 179 160 154 141 139 144
101 98 40 0 95 86 87 87 87 89 87 87 86 85 86 82 80 77 74 72 72 72 70 71 69 68 66 66 62 60 58 55 52 51 50 47 46 45 44 41 38 33 26 24 22 18 16 21 20 10 358 346 339 334 321 323 329 336 349 359 5 11 9 40 45 24 23 9 27 75 334 60 303 263 243 220 198 201 165 165 170 152 158 155 152
62 61 52 52 43 85 82 83 87 88 90 89 86 84 81 80 78 74 73 71 71 68 69 69 69 68 68 66 65 63 57 53 49 47 45 43 40 38 36 33 27 22 15 13 14 6 9 10 12 2 353 346 333 320 319 321 327 329 341 356 3 18 15 30 37 41 24 12 34 28 15 327 307 264 232 207 172 191 179 183 156 169 172 171 162
52 53 49 20 90 97 96 98 97 97 92 88 86 83 80 76 73 70 69 67 68 68 67 68 68 67 67 64 63 61 57 54 49 46 43 39 35 31 30 28 22 15 12 4 2 2 360 357 357 354 344 340 330 322 321 326 323 325 340 354 354 3 7 341 343 62 25 4 358 269 346 329 310 326 175 165 180 191 200 162 183 186 182 178 174
62 56 56 50 28 94 111 104 102 97 91 86 84 81 77 73 72 71 69 70 68 69 68 66 67 68 65 64 63 60 55 50 48 45 45 42 37 33 29 26 21 15 10 5 358 357 354 349 346 343 337 331 321 316 319 321 319 320 332 349 348 343 5 319 355 43 13 353 292 336 329 324 302 294 199 184 184 203 195 195 200 193 187 192 182
35 32 42 41 43 22 28 92 96 91 87 86 83 78 77 77 75 74 75 72 72 70 68 66 68 68 65 64 60 55 51 46 42 38 33 34 34 29 26 23 18 12 4 357 354 349 348 346 340 333 327 322 315 312 312 314 307 306 316 332 330 331 339 201 23 343 277 276 284 265 267 249 274 241 262 240 220 221 209 213 201 192 219 225 195
38 37 52 39 35 28 27 7 56 67 76 87 83 77 80 80 77 72 70 71 72 70 67 66 61 61 65 63 54 47 41 38 35 27 22 19 18 17 13 11 6 2 354 347 343 340 337 334 332 330 324 320 314 311 309 304 302 300 305 312 304 303 283 202 153 222 247 261 255 300 276 263 309 17 3 343 302 279 302 289 251 188 296 265 218
29 43 52 40 26 21 32 23 21 11 18 30 46 75 76 81 77 71 65 62 61 66 63 60 53 55 55 57 54 42 35 28 23 22 13 11 7 11 5 355 350 347 344 344 334 330 328 322 318 319 319 316 313 308 306 304 301 300 298 295 293 284 235 201 28 348 309 17 43 25 23 51 38 26 15 19 274 266 201 229 270 261 205 255 258
25 44 48 40 16 17 27 41 40 35 26 45 40 36 80 78 79 81 69 66 64 61 61 62 58 57 56 53 50 36 25 15 16 5 360 358 358 360 359 354 349 354 10 25 24 18 7 352 335 318 309 308 305 301 300 299 297 294 290 289 289 295 219 83 357 345 347 36 35 39 344 39 33 19 14 8 341 297 143 231 236 242 205 295 292
47 44 35 26 24 28 27 47 55 42 36 48 54 51 75 83 88 94 98 84 77 75 65 63 65 59 49 52 48 32 9 356 358 3 353 358 358 3 17 31 30 28 24 21 22 19 14 11 14 10 350 329 313 300 296 296 296 295 295 284 282 297 85 51 34 338 10 344 63 28 26 43 38 19 12 7 3 348 352 297 156 243 206 219 206
41 33 22 5 1 16 358 30 21 27 28 352 12 350 47 70 58 84 91 72 71 72 64 48 40 19 37 30 29 13 2 346 352 12 26 35 58 49 46 43 35 28 24 20 17 16 13 10 16 17 16 9 1 340 311 307 310 308 299 288 272 101 100 91 41 40 27 4 357 327 65 74 63 45 34 28 23 14 5 342 352 218 285 219 254
35 23 3 347 355 10 342 342 11 354 348 342 0 4 7 42 22 10 34 55 49 43 32 32 27 19 14 8 7 354 9 354 20 53 43 45 48 47 42 39 32 27 21 18 14 13 10 7 14 14 12 12 5 9 8 344 333 314 308 301 237 163 111 152 124 83 71 336 341 346 74 74 73 64 51 39 45 34 32 356 339 54 230 315 345
62 29 337 332 338 311 301 269 230 346 348 353 3 1 57 46 34 34 37 50 62 58 51 42 39 35 33 29 30 35 34 25 53 62 59 51 46 43 35 29 25 24 23 17 13 12 9 6 13 10 8 14 12 13 5 355 340 329 341 321 162 183 115 145 125 87 98 111 349 90 86 81 75 73 59 54 48 53 46 37 15 349 29 171 231
83 50 335 315 309 283 257 263 26 358 10 337 8 25 26 41 48 47 61 62 61 63 53 48 40 38 36 34 33 40 38 31 51 52 49 41 33 29 29 27 22 20 26 18 11 9 11 8 10 9 2 8 7 5 12 8 355 355 4 12 60 199 105 113 90 88 102 103 121 97 85 75 70 66 60 55 48 49 50 28 15 16 2 8 205
59 51 329 300 286 268 296 333 359 11 24 46 67 62 55 58 63 80 73 67 65 59 55 51 42 38 36 36 36 45 39 38 48 49 43 40 34 32 23 23 21 20 20 22 15 7 11 9 6 2 1 356 8 6 14 19 30 32 19 8 24 79 80 69 66 74 87 59 80 88 85 77 67 59 61 56 51 47 37 30 21 15 17 7 339
141 112 174 277 284 316 353 357 14 6 44 80 89 91 82 69 73 79 69 49 55 55 55 49 39 36 36 33 35 37 40 44 43 43 39 31 33 24 24 22 28 25 17 21 17 12 7 6 4 4 356 357 5 12 16 31 26 44 41 12 4 350 90 98 71 33 80 56 48 83 84 79 68 62 56 54 52 48 43 39 30 27 354 6 353
335 156 219 267 301 337 0 3 58 72 81 109 89 69 66 73 77 77 76 57 53 56 50 47 39 35 35 36 42 36 43 49 47 44 43 35 39 30 32 34 36 26 16 23 15 10 6 2 3 2 4 16 11 16 9 16 28 47 72 71 20 9 83 116 99 44 94 65 56 85 94 88 79 69 58 54 50 49 48 47 42 53 20 36 27
116 138 257 325 349 350 355 66 85 89 73 64 63 59 56 66 72 74 72 79 74 65 54 55 45 35 33 36 54 57 54 52 49 50 43 44 41 42 39 39 34 26 16 31 18 9 6 4 3 3 6 12 21 15 10 5 8 37 46 50 54 44 73 106 112 112 91 80 20 87 81 93 92 82 75 66 52 48 48 43 38 34 31 38 42
119 136 117 74 20 12 40 59 77 79 72 69 66 58 60 65 69 73 72 74 64 61 58 49 48 35 34 35 45 57 55 59 56 45 46 46 36 37 38 35 32 20 23 22 22 10 8 5 8 4 5 5 8 14 11 9 5 13 43 42 35 46 58 76 61 22 19 20 356 122 101 96 96 91 80 73 66 58 53 51 48 40 36 35 39
142 129 104 60 44 75 76 81 84 80 74 68 58 56 54 68 70 81 84 70 68 65 58 49 36 45 31 33 42 71 72 76 70 47 53 37 33 27 32 24 24 14 23 22 9 19 9 8 11 15 11 5 8 2 20 15 6 11 10 47 43 37 63 79 92 63 313 15 303 239 125 109 102 102 98 88 90 81 66 62 53 50 44 46 40
115 91 70 70 80 78 79 85 84 84 77 75 66 63 62 70 77 90 80 79 72 66 58 51 33 30 30 37 46 66 80 79 77 65 54 49 42 37 26 22 23 12 18 20 14 19 15 17 11 16 18 12 9 0 17 19 17 8 1 19 36 42 40 57 102 109 244 128 301 271 142 122 119 129 125 127 121 115 112 84 54 45 47 46 47
110 95 85 86 76 77 81 79 84 83 79 72 69 67 68 78 83 83 86 84 78 69 59 44 27 16 29 47 58 68 80 69 69 63 60 47 39 35 24 26 17 13 21 24 23 17 20 13 16 20 25 30 22 18 12 26 19 13 8 13 17 23 34 23 82 152 175 158 271 266 220 148 145 151 146 143 146 169 179 122 91 78 60 44 43
122 121 106 91 96 96 90 85 88 86 90 84 81 82 78 74 81 90 88 80 72 70 63 44 26 17 40 53 60 59 49 65 50 46 47 49 41 35 30 28 21 17 20 20 27 18 23 20 17 9 21 25 29 19 18 27 20 6 11 9 4 12 8 63 11 61 165 181 285 273 230 191 184 160 169 157 167 201 196 172 140 122 130 94 47
130 107 93 91 101 99 103 105 100 99 94 94 84 75 72 78 82 88 85 76 67 75 64 45 29 36 60 67 69 65 62 51 64 49 46 51 47 43 40 32 27 28 25 21 24 19 23 27 14 25 20 24 23 17 22 20 4 12 17 356 12 13 17 31 38 12 13 94 241 320 322 309 228 175 212 192 193 218 208 207 235 168 109 69 48
107 93 96 106 98 109 114 95 97 90 90 87 88 84 77 80 82 82 83 85 77 78 71 42 45 58 65 57 60 62 55 54 51 67 52 56 55 46 41 39 38 37 33 22 29 21 27 28 20 28 25 26 20 22 17 20 14 12 5 6 19 22 32 37 27 20 31 41 46 23 1 356 339 342 343 345 333 352 351 314 297 348 58 74 35
123 119 108 108 103 96 88 99 92 100 106 108 90 80 83 84 91 93 90 90 86 87 79 66 73 73 74 65 57 61 60 57 56 57 57 48 56 54 43 44 46 46 35 25 32 28 18 30 25 33 36 27 21 14 13 7 8 11 1 19 26 31 34 35 30 29 37 48 44 36 33 30 37 44 44 40 30 25 25 19 355 13 358 32 14
131 121 120 118 115 111 108 112 112 108 95 81 80 79 84 86 87 92 87 70 67 91 94 86 77 79 69 69 64 63 56 57 57 57 62 46 46 55 43 48 50 53 42 31 34 27 28 26 29 30 49 41 27 13 7 4 356 1 1 29 34 37 42 36 35 37 41 45 36 36 38 36 37 37 42 41 34 24 20 29 36 29 6 8 9
108 119 129 130 137 135 125 124 118 98 105 112 96 82 83 85 89 86 80 72 59 29 27 43 38 25 25 31 58 72 70 63 54 54 59 54 54 54 49 47 51 51 48 41 34 29 32 29 31 24 34 41 33 20 357 351 348 351 16 32 36 44 41 41 39 41 42 40 38 36 35 34 37 35 35 30 25 19 20 17 17 12 3 8 9
120 124 120 117 106 98 85 65 69 78 88 85 75 79 81 65 53 65 63 65 41 11 17 44 32 47 37 31 53 63 69 63 56 48 55 45 45 40 49 45 54 56 51 45 36 29 30 27 36 27 31 47 38 20 357 335 346 350 31 30 49 52 47 46 45 46 40 39 40 35 35 37 36 32 31 26 22 22 14 12 7 360 352 3 20
125 124 117 102 90 71 63 55 81 109 101 90 87 79 72 75 79 50 52 51 37 53 13 35 14 65 74 61 44 46 50 59 55 54 54 52 49 45 47 42 52 59 54 47 40 35 29 24 24 28 29 34 31 17 3 357 349 29 38 31 48 57 54 51 48 48 43 37 34 34 35 31 36 31 29 20 17 13 14 6 3 357 355 357 17
124 116 108 106 103 99 96 97 81 100 115 112 111 115 106 80 73 84 122 325 112 29 3 335 43 39 57 58 63 53 47 48 53 53 46 50 53 48 49 39 47 58 59 55 50 49 41 35 29 29 32 35 26 13 7 348 25 13 15 39 28 49 61 51 48 43 41 35 34 34 31 33 31 26 21 19 16 11 12 7 2 358 3 8 358
121 119 123 126 109 101 105 116 94 97 118 126 130 120 151 153 148 176 190 219 127 109 64 27 45 49 61 57 44 43 49 46 54 58 51 56 55 51 46 39 44 59 64 56 53 50 46 42 33 38 26 41 37 15 8 8 29 28 347 333 360 5 65 55 44 34 36 32 32 29 28 30 31 21 16 18 15 12 11 11 13 15 16 19 15
139 136 139 112 102 104 117 124 118 105 116 125 123 143 148 162 126 197 176 246 282 13 89 42 69 69 50 56 67 65 62 54 48 53 59 53 60 58 45 41 43 52 60 49 46 44 43 41 39 46 28 30 43 23 22 34 35 323 331 59 4 356 322 15 38 29 28 31 28 27 22 25 28 19 14 17 15 11 9 16 27 30 30 30 21
129 137 134 114 112 117 126 129 129 119 120 133 139 142 134 141 124 115 52 117 180 19 86 76 96 98 88 91 51 68 66 57 53 61 60 55 61 62 54 48 48 53 66 61 50 51 46 45 44 42 47 46 24 19 26 26 30 15 36 53 342 66 355 355 339 318 18 33 30 25 20 19 21 16 14 18 11 8 8 17 33 39 38 35 29
144 147 128 131 136 148 154 153 150 147 139 128 123 119 103 83 61 41 38 32 24 26 46 37 52 79 65 47 31 62 65 60 61 63 66 64 57 57 60 56 56 51 60 62 56 51 51 51 49 52 46 58 38 20 21 27 34 35 73 45 13 33 19 295 320 292 10 22 25 21 19 15 17 14 10 11 8 9 9 16 31 39 42 39 32
148 151 139 140 140 151 148 151 139 141 137 140 149 120 123 120 95 104 91 56 74 78 97 117 89 93 106 211 49 64 70 66 67 67 65 63 57 55 57 60 58 55 59 66 64 58 54 54 46 56 54 43 69 45 28 15 33 36 39 61 105 125 313 295 32 326 4 28 32 19 17 14 12 9 6 7 6 4 9 13 25 34 33 39 31
159 143 138 143 144 155 171 162 161 149 132 146 133 116 116 136 151 158 164 164 153 245 240 190 132 174 154 91 81 59 72 80 67 72 69 65 63 56 58 63 64 63 63 66 63 61 59 58 50 53 54 55 48 59 42 5 18 36 36 43 54 54 53 42 20 309 347 328 44 6 9 8 5 7 5 2 359 1 9 10 17 31 26 31 27
148 136 139 145 153 165 170 171 163 159 167 142 131 139 139 148 140 149 163 162 170 188 193 185 180 165 114 99 80 67 71 79 81 71 69 68 66 60 60 60 62 62 68 66 70 66 64 56 58 55 51 51 57 63 54 36 57 12 25 41 37 44 54 64 49 74 70 321 333 354 27 1 359 9 1 358 355 357 4 4 9 25 23 22 22
140 145 153 163 162 168 160 134 142 139 153 153 149 147 142 155 149 153 155 193 176 191 184 125 146 140 113 103 86 80 78 70 76 81 70 68 68 68 63 64 63 60 68 69 68 71 72 67 56 50 50 45 47 56 59 45 45 39 31 25 32 31 36 61 52 37 68 352 297 353 337 340 352 10 360 360 353 356 1 355 4 25 17 16 14
154 155 156 158 155 154 134 146 153 152 159 152 151 142 144 142 134 153 155 196 203 188 126 142 144 136 131 128 105 93 89 78 71 75 77 70 67 66 66 66 67 67 68 72 73 66 65 68 68 68 61 60 42 50 65 59 60 52 56 50 42 15 31 21 29 24 30 70 16 340 349 347 342 336 351 351 343 353 350 346 355 7 6 6 5
154 152 159 166 154 148 145 153 173 170 158 150 145 154 160 158 157 169 168 185 207 171 141 144 94 110 121 139 110 98 89 91 85 72 77 73 66 65 71 69 66 66 67 69 70 73 65 67 68 68 65 64 52 50 48 53 64 59 52 56 55 55 54 40 8 11 28 353 349 335 323 325 312 322 339 344 335 346 340 342 344 356 358 351 349